{"data":{"norad_id":67183,"epoch":"2026-09-20T09:07:20.790336Z","epoch_age_seconds":89027,"freshness":"FRESH","line1":"1 67183U 25303W   26263.38010174  .00011915  00000+0  44169-3 0  9994","line2":"2 67183  43.0017 290.9330 0000973 281.0777  78.9965 15.27587347 42514","mean_motion":15.27587347,"eccentricity":9.73e-5,"inclination_deg":43.0017,"raan_deg":290.933,"arg_perigee_deg":281.0777,"mean_anomaly_deg":78.9965,"bstar":0.00044169,"rev_number":4251,"period_min":94.266295333487,"perigee_km":482.35950530016,"apogee_km":483.69468783335,"semimajor_km":6861.1640965668,"source":"CELESTRAK","updated_at":"2026-09-21T09:00:36.132668Z"}}